This demonstration page uses our WeatherBlox Daily Observations layout. Learn more.

Hourly Observations for October 4, 2017

Temp ( °F °C ) Dew Point ( °F °C ) Humidity (%) Winds ( mph kmh ) Pressure ( in mb ) Visibility ( mi km ) Precip ( " mm )
12:54 am 00:54 Cloudy 59 15 50 10 72 72 N 8 13 30.37 1028 10 16.0934 0 0
1:54 am 01:54 Cloudy 58 14.4 49 9.4 72 72 NNE 8 13 30.37 1029 10 16.0934 0 0.0254
2:54 am 02:54 Cloudy 58 14.4 49 9.4 72 72 NNE 8 13 30.39 1029 10 16.0934 0 0
3:54 am 03:54 Cloudy 56 13.3 48 8.9 75 75 NNE 8 13 30.4 1029 10 16.0934 0 0
4:54 am 04:54 Mostly Cloudy 54 12.2 48 8.9 80 80 NNE 5 7 30.41 1030 10 16.0934 0 0
5:54 am 05:54 Mostly Cloudy 54 12.2 48 8.9 80 80 N 8 13 30.41 1030 10 16.0934 0 0
6:54 am 06:54 Mostly Cloudy 54 12.2 47 8.3 77 77 NE 9 15 30.41 1030 10 16.0934 0 0
7:54 am 07:54 Mostly Cloudy 53 11.7 47 8.3 80 80 undefined N/A 30.42 1030 10 16.0934 0 0
8:54 am 08:54 Mostly Sunny 55 12.8 47 8.3 74 74 N 8 13 30.45 1031 10 16.0934 0 0
9:54 am 09:54 Mostly Cloudy 57 13.9 47 8.3 69 69 NE 10 17 30.45 1031 10 16.0934 0 0
10:54 am 10:54 Sunny 59 15 48 8.9 67 67 NE 7 11 30.42 1030 10 16.0934 0 0
11:54 am 11:54 Cloudy 61 16.1 48 8.9 63 63 ENE 9 15 30.4 1030 10 16.0934 0 0
12:54 pm 12:54 Partly Cloudy 63 17.2 48 8.9 58 58 ENE 12 19 30.38 1029 10 16.0934 0 0
1:54 pm 13:54 Mostly Sunny 65 18.3 48 8.9 54 54 E 8 13 30.35 1028 10 16.0934 0 0
2:54 pm 14:54 Sunny 68 20 48 8.9 49 49 ENE 8 13 30.32 1027 10 16.0934 0 0
3:54 pm 15:54 Sunny 70 21.1 47 8.3 44 44 E 8 13 30.3 1026 10 16.0934 0 0
4:54 pm 16:54 Sunny 69 20.6 46 7.8 44 44 SE 12 19 30.28 1026 10 16.0934 0 0
5:54 pm 17:54 Mostly Sunny 67 19.4 44 6.7 44 44 ESE 13 20 30.27 1025 10 16.0934 0 0
6:54 pm 18:54 Cloudy 66 18.9 44 6.7 45 45 ESE 8 13 30.27 1025 10 16.0934 0 0
7:54 pm 19:54 Cloudy 65 18.3 45 7.2 49 49 ESE 6 9 30.26 1025 10 16.0934 0 0
8:54 pm 20:54 Cloudy 63 17.2 48 8.9 58 58 ESE 8 13 30.25 1025 10 16.0934 0 0
9:28 pm 21:28 Cloudy 63 17.2 49 9.4 60 60 ESE 9 15 30.27 1025 10 16.0934 0 0
9:54 pm 21:54 Cloudy 63 17.2 49 9.4 60 60 ESE 7 11 30.24 1024 10 16.0934 0 0
10:54 pm 22:54 Cloudy 62 16.7 50 10 65 65 SE 9 15 30.24 1024 10 16.0934 0 0
11:54 pm 23:54 Cloudy 62 16.7 50 10 65 65 SE 6 9 30.22 1024 10 16.0934 0 0

Powered by AerisWeather